Time,TemperatureF,DewpointF,PressureIn,WindDirection,WindDirectionDegrees,WindSpeedMPH,WindSpeedGustMPH,Humidity,HourlyPrecipIn,Conditions,Clouds,dailyrainin,SoftwareType,DateUTC
2013-04-01 00:00:00,77.0,69.0,30.16,NE,50,8.0,-999.0,75,-99.99,,,-99.99,,2013-04-01 04:00:00,
2013-04-01 00:12:00,77.0,69.0,30.16,NE,50,8.0,-999.0,75,-99.99,,,-99.99,,2013-04-01 04:12:00,
2013-04-01 00:22:00,77.0,69.0,30.16,NE,50,8.0,-999.0,75,-99.99,,,-99.99,,2013-04-01 04:22:00,
2013-04-01 00:32:00,77.0,69.0,30.16,NE,50,8.0,-999.0,75,-99.99,,,-99.99,,2013-04-01 04:32:00,
2013-04-01 00:42:00,77.0,69.0,30.16,NE,50,8.0,-999.0,75,-99.99,,,-99.99,,2013-04-01 04:42:00,
2013-04-01 00:52:00,77.0,69.0,30.16,NE,50,8.0,-999.0,75,-99.99,,,-99.99,,2013-04-01 04:52:00,
2013-04-01 01:00:00,77.0,68.0,30.14,North,0,5.0,-999.0,74,-99.99,,,-99.99,,2013-04-01 05:00:00,
2013-04-01 01:52:00,77.0,68.0,30.14,North,0,5.0,-999.0,74,-99.99,,,-99.99,,2013-04-01 05:52:00,
2013-04-01 02:11:00,78.0,69.0,30.14,ENE,60,5.0,-999.0,74,-99.99,,,-99.99,,2013-04-01 06:11:00,
2013-04-01 02:22:00,78.0,69.0,30.14,ENE,60,5.0,-999.0,74,-99.99,,,-99.99,,2013-04-01 06:22:00,
2013-04-01 02:41:00,78.0,69.0,30.14,ENE,60,5.0,-999.0,74,-99.99,,,-99.99,,2013-04-01 06:41:00,
2013-04-01 02:52:00,78.0,69.0,30.14,ENE,60,5.0,-999.0,74,-99.99,,,-99.99,,2013-04-01 06:52:00,
2013-04-01 03:00:00,77.0,68.0,30.14,NNE,30,7.0,-999.0,72,-99.99,,,-99.99,,2013-04-01 07:00:00,
2013-04-01 03:21:00,77.0,68.0,30.14,NNE,30,7.0,-999.0,72,-99.99,,,-99.99,,2013-04-01 07:21:00,
2013-04-01 03:42:00,77.0,68.0,30.14,NNE,30,7.0,-999.0,72,-99.99,,,-99.99,,2013-04-01 07:42:00,
2013-04-01 03:51:00,77.0,68.0,30.14,NNE,30,7.0,-999.0,72,-99.99,,,-99.99,,2013-04-01 07:51:00,
2013-04-01 04:00:00,78.0,68.0,30.15,North,10,5.0,-999.0,71,-99.99,,,-99.99,,2013-04-01 08:00:00,
2013-04-01 04:21:00,78.0,68.0,30.15,North,10,5.0,-999.0,71,-99.99,,,-99.99,,2013-04-01 08:21:00,
2013-04-01 04:31:00,78.0,68.0,30.15,North,10,5.0,-999.0,71,-99.99,,,-99.99,,2013-04-01 08:31:00,
2013-04-01 04:42:00,78.0,68.0,30.15,North,10,5.0,-999.0,71,-99.99,,,-99.99,,2013-04-01 08:42:00,
2013-04-01 04:51:00,78.0,68.0,30.15,North,10,5.0,-999.0,71,-99.99,,,-99.99,,2013-04-01 08:51:00,
2013-04-01 05:00:00,78.0,69.0,30.16,NE,40,6.0,-999.0,74,-99.99,,,-99.99,,2013-04-01 09:00:00,
2013-04-01 05:11:00,78.0,69.0,30.16,NE,40,6.0,-999.0,74,-99.99,,,-99.99,,2013-04-01 09:11:00,
2013-04-01 05:21:00,78.0,69.0,30.16,NE,40,6.0,-999.0,74,-99.99,,,-99.99,,2013-04-01 09:21:00,
2013-04-01 05:32:00,78.0,69.0,30.16,NE,40,6.0,-999.0,74,-99.99,,,-99.99,,2013-04-01 09:32:00,
2013-04-01 05:42:00,78.0,69.0,30.16,NE,40,6.0,-999.0,74,-99.99,,,-99.99,,2013-04-01 09:42:00,
2013-04-01 05:52:00,78.0,69.0,30.16,NE,40,6.0,-999.0,74,-99.99,,,-99.99,,2013-04-01 09:52:00,
2013-04-01 06:00:00,78.0,68.0,30.18,North,350,7.0,-999.0,71,-99.99,,,-99.99,,2013-04-01 10:00:00,
2013-04-01 06:12:00,78.0,68.0,30.18,North,350,7.0,-999.0,71,-99.99,,,-99.99,,2013-04-01 10:12:00,
2013-04-01 06:22:00,78.0,68.0,30.18,North,350,7.0,-999.0,71,-99.99,,,-99.99,,2013-04-01 10:22:00,
2013-04-01 06:32:00,78.0,68.0,30.18,North,350,7.0,-999.0,71,-99.99,,,-99.99,,2013-04-01 10:32:00,
2013-04-01 06:41:00,78.0,68.0,30.18,North,350,7.0,-999.0,71,-99.99,,,-99.99,,2013-04-01 10:41:00,
2013-04-01 06:52:00,78.0,68.0,30.18,North,350,7.0,-999.0,71,-99.99,,,-99.99,,2013-04-01 10:52:00,
2013-04-01 16:00:00,77.0,66.0,30.16,North,10,15.0,-999.0,69,-99.99,,,-99.99,,2013-04-01 20:00:00,
2013-04-01 16:21:00,77.0,66.0,30.16,North,10,15.0,-999.0,69,-99.99,,,-99.99,,2013-04-01 20:21:00,
2013-04-01 16:32:00,77.0,66.0,30.16,North,10,15.0,-999.0,69,-99.99,,,-99.99,,2013-04-01 20:32:00,
2013-04-01 16:42:00,77.0,66.0,30.16,North,10,15.0,-999.0,69,-99.99,,,-99.99,,2013-04-01 20:42:00,
2013-04-01 16:51:00,77.0,66.0,30.16,North,10,15.0,-999.0,69,-99.99,,,-99.99,,2013-04-01 20:51:00,
2013-04-01 17:00:00,77.0,68.0,30.17,NNE,20,14.0,-999.0,72,-99.99,,,-99.99,,2013-04-01 21:00:00,
2013-04-01 17:11:00,77.0,68.0,30.17,NNE,20,14.0,-999.0,72,-99.99,,,-99.99,,2013-04-01 21:11:00,
2013-04-01 17:22:00,77.0,68.0,30.17,NNE,20,14.0,-999.0,72,-99.99,,,-99.99,,2013-04-01 21:22:00,
2013-04-01 17:32:00,77.0,68.0,30.17,NNE,20,14.0,-999.0,72,-99.99,,,-99.99,,2013-04-01 21:32:00,
2013-04-01 17:43:00,77.0,68.0,30.17,NNE,20,14.0,-999.0,72,-99.99,,,-99.99,,2013-04-01 21:43:00,
2013-04-01 17:52:00,77.0,68.0,30.17,NNE,20,14.0,-999.0,72,-99.99,,,-99.99,,2013-04-01 21:52:00,
2013-04-01 18:00:00,77.0,67.0,30.19,North,10,20.0,-999.0,70,-99.99,,,-99.99,,2013-04-01 22:00:00,
2013-04-01 18:42:00,77.0,67.0,30.19,North,10,20.0,-999.0,70,-99.99,,,-99.99,,2013-04-01 22:42:00,
2013-04-01 18:52:00,77.0,67.0,30.19,North,10,20.0,-999.0,70,-99.99,,,-99.99,,2013-04-01 22:52:00,
2013-04-01 19:11:00,77.0,64.0,30.20,North,0,20.0,-999.0,64,-99.99,,,-99.99,,2013-04-01 23:11:00,
2013-04-01 19:21:00,77.0,64.0,30.20,North,0,20.0,-999.0,64,-99.99,,,-99.99,,2013-04-01 23:21:00,
2013-04-01 19:32:00,77.0,64.0,30.20,North,0,20.0,-999.0,64,-99.99,,,-99.99,,2013-04-01 23:32:00,
2013-04-01 19:42:00,77.0,64.0,30.20,North,0,20.0,-999.0,64,-99.99,,,-99.99,,2013-04-01 23:42:00,
2013-04-01 19:52:00,77.0,64.0,30.20,North,0,20.0,-999.0,64,-99.99,,,-99.99,,2013-04-01 23:52:00,
2013-04-01 20:00:00,77.0,65.0,30.21,North,0,20.0,-999.0,65,-99.99,,,-99.99,,2013-04-02 00:00:00,
2013-04-01 20:32:00,77.0,65.0,30.21,North,0,20.0,-999.0,65,-99.99,,,-99.99,,2013-04-02 00:32:00,
2013-04-01 20:41:00,77.0,65.0,30.21,North,0,20.0,-999.0,65,-99.99,,,-99.99,,2013-04-02 00:41:00,
2013-04-01 20:51:00,77.0,65.0,30.21,North,0,20.0,-999.0,65,-99.99,,,-99.99,,2013-04-02 00:51:00,
2013-04-01 21:00:00,77.0,66.0,30.21,NNE,20,16.0,-999.0,68,-99.99,,,-99.99,,2013-04-02 01:00:00,
2013-04-01 21:11:00,77.0,66.0,30.21,NNE,20,16.0,-999.0,68,-99.99,,,-99.99,,2013-04-02 01:11:00,
2013-04-01 21:21:00,77.0,66.0,30.21,NNE,20,16.0,-999.0,68,-99.99,,,-99.99,,2013-04-02 01:21:00,
2013-04-01 21:31:00,77.0,66.0,30.21,NNE,20,16.0,-999.0,68,-99.99,,,-99.99,,2013-04-02 01:31:00,
2013-04-01 21:41:00,77.0,66.0,30.21,NNE,20,16.0,-999.0,68,-99.99,,,-99.99,,2013-04-02 01:41:00,
2013-04-01 21:52:00,77.0,66.0,30.21,NNE,20,16.0,-999.0,68,-99.99,,,-99.99,,2013-04-02 01:52:00,